This is the latest recevied weather packets stored in our database for station/object NT9M-13. If no packets are shown the sender has not sent any weather packets the latest 10 day(s).
| Time | Temp. | Humidity | Pressure | Rain* | Wind** | Luminosity | Snow |
|---|---|---|---|---|---|---|---|
| 1778017782 | 12.78° C | 61% | 1008.9 hPa | 0 mm | - | - | - |
| 1778017182 | 13.33° C | 63% | 1008.9 hPa | 0 mm | - | - | - |
| 1778016581 | 13.33° C | 65% | 1009 hPa | 0 mm | - | - | - |
| 1778015981 | 13.89° C | 65% | 1008.9 hPa | 0 mm | - | - | - |
| 1778015381 | 13.89° C | 68% | 1008.6 hPa | 0 mm | - | - | - |
| 1778012382 | 14.44° C | 69% | 1008.5 hPa | 0 mm | - | - | - |
| 1778010582 | 14.44° C | 70% | 1008.8 hPa | 0 mm | - | - | - |
| 1778009982 | 14.44° C | 69% | 1009.1 hPa | 0 mm | - | - | - |
| 1778005181 | 13.33° C | 75% | 1009 hPa | 0 mm | - | - | - |
| 1778002782 | 12.22° C | 78% | 1009.2 hPa | 0 mm | - | - | - |
| 1778000982 | 11.11° C | 84% | 1009.1 hPa | 0 mm | - | - | - |
| 1777999782 | 11.11° C | 85% | 1008.9 hPa | 0 mm | - | - | - |
| 1777999181 | 11.11° C | 83% | 1008.6 hPa | 0 mm | - | - | - |
| 1777998581 | 11.11° C | 89% | 1008.7 hPa | 0 mm | - | - | - |
| 1777997982 | 10.56° C | 88% | 1008.8 hPa | 0 mm | - | - | - |
| 1777996182 | 10.56° C | 86% | 1008.6 hPa | 0 mm | - | - | - |
| 1777993182 | 11.11° C | 82% | 1009 hPa | 0 mm | - | - | - |
| 1777988382 | 12.22° C | 78% | 1007.9 hPa | 0 mm | - | - | - |
| 1777987782 | 12.22° C | 78% | 1007.8 hPa | 0 mm | - | - | - |
| 1777981783 | 11.67° C | 84% | 1005.1 hPa | 0 mm | - | - | - |
| 1777979982 | 11.67° C | 85% | 1005.4 hPa | 0 mm | - | - | - |
| 1777977582 | 13.33° C | 94% | 1004.3 hPa | 0 mm | - | - | - |
| 1777975782 | 13.33° C | 94% | 1004 hPa | 0 mm | - | - | - |
| 1777973982 | 13.33° C | 94% | 1003.6 hPa | 0 mm | - | - | - |
| 1777973382 | 13.89° C | 94% | 1003.5 hPa | 0 mm | - | - | - |
* Rain latest hour (hover to see other rain measurements)
** Current wind speed in m/s (hover to see current wind gust speed)